Weather History for KSCK - November, 2012

Change the Weather History Date:

Sunday, November 25, 2012

  Actual Average Record
Temperature  
Mean Temperature 50 °F -  
Max Temperature 63 °F 60 °F 77 °F (1995)
Min Temperature 36 °F 40 °F 27 °F (2010)
Degree Days  
Heating Degree Days 15 15  
Month to date heating degree days 236 280  
Since 1 July heating degree days 302 377  
Cooling Degree Days 0 0  
Month to date cooling degree days 0 0  
Year to date cooling degree days 1370 1320  
Moisture  
Dew Point 42 °F    
Average Humidity 94    
Maximum Humidity 100    
Minimum Humidity 50    
Precipitation  
Precipitation 0.00 in 0.06 in 0.91 in (1970)
Month to date precipitation 0.99 1.39  
Year to date precipitation 7.74 11.54  
Since 1 July precipitation 1.27 2.51  
Snow  
Snow 0.00 in - 0.00 in (2002)
Month to date snowfall 0.0  
Since 1 July snowfall 0.0  
Since 1 September snowfall 0.0  
Snow Depth -    
Sea Level Pressure  
Sea Level Pressure 30.00 in    
Wind  
Wind Speed 2 mph (ENE)    
Max Wind Speed 7 mph    
Max Gust Speed 12 mph    
Visibility 3 miles    
Events Fog    
T = Trace of Precipitation, MM = Missing Value Source: NWS Daily Summary

Daily Weather History Graph

Daily Weather History Graph

Search for Another Location

Airport or City:

Trip Planner

Search our weather history database for the weather conditions in past years. The results will help you decide how hot, cold, wet, or windy it might be!

Date:

Astronomy

Nov. 25, 2012 Rise Set
Actual Time 6:56 AM PST 4:47 PM PST
Civil Twilight 6:27 AM PST 5:16 PM PST
Nautical Twilight 5:55 AM PST 5:48 PM PST
Astronomical Twilight 5:23 AM PST 6:19 PM PST
Moon 3:05 PM PST (11/25) 4:17 AM PST (11/25)
Length of Visible Light 10h 48m
Length of Day
9h 51m
Waxing Gibbous, 93% of the Moon is Illuminated
Nov 25
Waxing Gibbous
Nov 28
Full
Dec 6
Last Quarter
Dec 13
New
Dec 19
First Quarter

Hourly Weather History & Observations

Time (PST) Temp. Windchill Dew Point Humidity Pressure Visibility Wind Dir Wind Speed Gust Speed Precip Events Conditions
12:43 AM 42.8 °F - 42.8 °F 100% 30.02 in 1.2 mi Calm Calm - N/A   Clear
12:49 AM 42.8 °F 40.1 °F 42.8 °F 100% 30.02 in 0.2 mi ESE 4.6 mph - N/A Fog Fog
12:50 AM 43.0 °F 40.3 °F 43.0 °F 100% 30.02 in 0.2 mi ESE 4.6 mph - N/A Fog Fog
1:09 AM 41.0 °F 39.0 °F 41.0 °F 100% 30.01 in 0.5 mi East 3.5 mph - N/A Fog Fog
1:19 AM 41.0 °F - 41.0 °F 100% 30.01 in 0.2 mi Calm Calm - N/A Fog Fog
1:55 AM 41.0 °F 39.0 °F 41.0 °F 100% 30.02 in 0.2 mi East 3.5 mph - N/A Fog Fog
2:16 AM 39.2 °F - 39.2 °F 100% 30.01 in 0.2 mi Calm Calm - N/A Fog Fog
2:32 AM 39.2 °F 35.9 °F 39.2 °F 100% 30.01 in 0.8 mi ESE 4.6 mph - N/A   Mist
2:42 AM 39.2 °F - 39.2 °F 100% 30.02 in 1.2 mi Calm Calm - N/A   Overcast
2:55 AM 37.9 °F - 37.0 °F 97% 30.02 in 1.5 mi Calm Calm - N/A   Overcast
3:06 AM 37.4 °F 34.9 °F 37.4 °F 100% 30.02 in 0.8 mi NNW 3.5 mph - N/A   Mist
3:17 AM 39.2 °F 37.0 °F 39.2 °F 100% 30.02 in 0.8 mi North 3.5 mph - N/A   Mist
3:25 AM 39.2 °F - 39.2 °F 100% 30.01 in 1.5 mi Calm Calm - N/A   Mostly Cloudy
3:33 AM 39.2 °F - 39.2 °F 100% 30.01 in 0.8 mi Calm Calm - N/A   Mist
3:41 AM 39.2 °F - 39.2 °F 100% 30.01 in 1.0 mi Calm Calm - N/A   Mist
3:51 AM 37.4 °F - 37.4 °F 100% 30.01 in 2.0 mi Calm Calm - N/A   Mostly Cloudy
3:55 AM 39.0 °F - 39.0 °F 100% 30.01 in 2.5 mi Calm Calm - N/A   Mostly Cloudy
4:03 AM 39.2 °F - 39.2 °F 100% 30.01 in 3.0 mi Calm Calm - N/A   Overcast
4:15 AM 39.2 °F - 39.2 °F 100% 30.01 in 1.5 mi Calm Calm - N/A   Overcast
4:17 AM 39.2 °F - 39.2 °F 100% 30.01 in 0.8 mi Calm Calm - N/A   Mist
4:27 AM 39.2 °F - 39.2 °F 100% 30.01 in 0.2 mi Calm Calm - N/A Fog Fog
4:55 AM 37.9 °F - 37.9 °F 100% 30.01 in 0.5 mi Calm Calm - N/A Fog Fog
5:17 AM 37.4 °F - 37.4 °F 100% 30.00 in 1.2 mi Calm Calm - N/A   Scattered Clouds
5:37 AM 37.4 °F - 37.4 °F 100% 30.00 in 1.0 mi Calm Calm - N/A   Mist
5:44 AM 37.4 °F - 37.4 °F 100% 30.00 in 0.2 mi Calm Calm - N/A Fog Fog
5:55 AM 37.0 °F 34.5 °F 37.0 °F 100% 30.01 in 0.2 mi East 3.5 mph - N/A Fog Fog
6:55 AM 36.0 °F - 36.0 °F 100% 30.01 in 0.2 mi Calm Calm - N/A Fog Fog
7:55 AM 37.0 °F - 37.0 °F 100% 30.01 in 0.2 mi Calm Calm - N/A Fog Fog
8:36 AM 39.2 °F - 39.2 °F 100% 30.02 in 0.2 mi Calm Calm - N/A Fog Fog
8:55 AM 41.0 °F - 41.0 °F 100% 30.03 in 0.2 mi Calm Calm - N/A Fog Fog
9:51 AM 44.6 °F - 44.6 °F 100% 30.03 in 0.2 mi Calm Calm - N/A Fog Fog
9:55 AM 44.1 °F - 44.1 °F 100% 30.03 in 0.2 mi Calm Calm - N/A Fog Fog
10:04 AM 44.6 °F - 44.6 °F 100% 30.03 in 0.2 mi Calm Calm - N/A Fog Fog
10:39 AM 46.4 °F - 46.4 °F 100% 30.03 in 0.5 mi Calm Calm - N/A Fog Fog
10:55 AM 46.9 °F - 46.0 °F 97% 30.03 in 1.8 mi Variable 3.5 mph - N/A   Overcast
11:35 AM 53.6 °F - 48.2 °F 82% 30.00 in 4.0 mi Calm Calm - N/A   Clear
11:55 AM 57.0 °F - 48.9 °F 74% 29.99 in 5.0 mi North 3.5 mph - N/A   Haze
12:55 PM 59.0 °F - 50.0 °F 72% 29.97 in 6.0 mi WNW 5.8 mph - N/A   Haze
1:55 PM 60.1 °F - 50.0 °F 69% 29.95 in 7.0 mi West 4.6 mph - N/A   Clear
2:55 PM 62.1 °F - 48.9 °F 62% 29.94 in 10.0 mi WNW 3.5 mph - N/A   Clear
3:55 PM 62.1 °F - 48.0 °F 60% 29.94 in 10.0 mi WNW 4.6 mph - N/A   Clear
4:55 PM 57.0 °F - 46.9 °F 69% 29.92 in 9.0 mi West 4.6 mph - N/A   Clear
5:55 PM 54.0 °F - 46.0 °F 75% 29.93 in 10.0 mi Calm Calm - N/A   Clear
6:55 PM 52.0 °F - 46.9 °F 83% 29.93 in 10.0 mi Calm Calm - N/A   Clear
7:55 PM 48.9 °F - 46.9 °F 93% 29.94 in 9.0 mi Calm Calm - N/A   Clear
8:55 PM 48.0 °F - 46.0 °F 93% 29.96 in 8.0 mi Calm Calm - N/A   Clear
9:55 PM 45.0 °F - 43.0 °F 93% 29.96 in 8.0 mi Calm Calm - N/A   Clear
10:55 PM 43.0 °F 41.3 °F 42.1 °F 97% 29.96 in 5.0 mi ESE 3.5 mph - N/A   Clear
11:34 PM 44.6 °F 41.4 °F 44.6 °F 100% 29.97 in 2.5 mi SE 5.8 mph - N/A   Clear
11:55 PM 44.1 °F 40.8 °F 43.0 °F 96% 29.97 in 2.5 mi SE 5.8 mph - N/A   Clear